Location: Palmerston North
(40.3500°S, 175.6170°E)
Time: 00:41:33
(UTC+13:00)

USA 238 - Pass Details

Date: 24 January 2019
Orbit: 1029 x 1183 km, 63.4° (Epoch: 07 October)

Event Time Altitude Azimuth Distance (km) Brightness Sun altitude
Rises 22:15:43 0° 352° (N) 4,059 6.4 -15.3°
Reaches altitude 10° 22:18:36 10° 358° (N) 3,099 5.7 -15.7°
Maximum altitude 22:25:29 42° 66° (ENE) 1,620 4.2 -16.6°
Drops below altitude 10° 22:32:16 10° 133° (SE) 3,062 6.1 -17.6°
Sets 22:35:06 0° 139° (SE) 4,007 6.8 -17.9°
